SCOUT X-4 R/B, 1358

Orbit data source: Space-Track

SCOUT X-4 R/B, 1358 is space debris in LEO originally from a launch on Thu, 29 Apr 1965 UTC launched from the Wallops Island (WLPIS). Debris objects in space refer to the collection of defunct objects orbiting the Earth. Examples of debris include non-operational satellites, rocket bodies, and fragments generated from explosions, collisions, or faulty payload assembly.

Loading next visibility...
Identifier
1358, 1965-032B
Orbit
LEO
Country
Flag of USUS
Related business
Manufacturer
ABL
Mission
Spacecraft
Bus & Motor
ALTAIR, Unknown motor
Mass
33 kg wet, 33 kg dry
Launch date (UTC)
1965-04-29 (61 years ago)
Launch vehicle
Unknown
Launch site
Wallops Island (WLPIS)
Object type
Payload
Rocket body
Debris
Shape & HBR
Unknown
Radar Cross Section
Medium (>0.1 m² and <1 m²)

Expand to show TLE details & history
Last TLE update: 2 days ago

TLE from 2 days ago
0 SCOUT X-4 R/B
1 01358U 65032B   26174.70201848 -.00000055  00000-0  37256-4 0  9991
2 01358  41.1924  40.0941 0244513 257.3145 100.0173 13.38248860988543
Epoch: 2026-06-23T16:50Z
TLE epoch observation values (Epoch: 2026-06-23T16:50:54.396Z)
Latitude
0.00004°
Longitude
-124.5023°
Altitude
1,151.603 km
Speed
7.261 km/s
True Right ascension
02h 40m 22s
True Declination
0° 00' 00"
Sunlit
Object was in daylight at epoch
Visualization orbit readout
Latitude
Unknown
Longitude
Unknown
Altitude
Unknown
Speed
Unknown
Apparent Right ascension
Unknown
Apparent Declination
Unknown
Sunlit
N/A
Visualization observer readout
Local Sidereal Time
16:17:32
Azimuth
Unknown
Elevation
Unknown
Doppler factor
Unknown
Orbital elements
Apogee altitude
1,301.157 km
Perigee altitude
934.583 km
Semi-major axis
7,496.007 km
Eccentricity
0.02445
Inclination
41.1924°
RAAN
40.0941°
Arg. of periapsis
257.3145°
True anomaly
102.76086°
Mean anomaly
100.0173°
Eccentric anomaly
101.39066°
Mean motion
3.34425 °/min
Orbital period
107.65 mins
BSTAR
0.000037256
Loading maneuver chart data...
Computing Atmospheric mass density...
Loading historical data...
Loading historical data...
Loading historical data...
Loading historical data...
Loading historical data...
Loading historical data...
Loading historical data...
Other satellites on launch #32 in the year 1965 (1965-04-29 UTC)

Documentation

Showing up to 5 results
|